Regional Weather Roundup
Issued by NWS

Home | Current Version | Previous Version | Text Only | Print | Product List | Glossary On
Versions: 1 2 3 4 5 6 7 8 9 10 11 12 13 14 15 16 17 18 19 20 21 22 23 24 25 26 27 28 29 30 31 32 33 34 35 36 37 38 39 40 41 42 43 44 45 46 47 48 49 50
000
ASUS42 KKEY 291010
RWRKEY

FLORIDA REGIONAL WEATHER ROUNDUP FOR THE FLORIDA KEYS
NATIONAL WEATHER SERVICE KEY WEST FLORIDA
500 AM EST THU JAN 29 2015

...SOUTH FLORIDA AND THE KEYS...

CITY           SKY/WX    TMP DP  RH WIND       PRES   REMARKS
FORT MYERS     FAIR      47  43  86 NE9       30.22F WCI  43
SW REGIONAL AP CLEAR     47  42  83 N8        30.23S WCI  43
NAPLES         CLEAR     50  43  77 NE9       30.21S
MIAMI          PTCLDY    54  47  77 N3        30.18F
WEST KENDALL   MOCLDY    54  49  83 N8        30.18F
HOMESTEAD      PTCLDY    54  49  83 NW6       30.18S
MARATHON       PTCLDY    58  53  84 NE15      30.17S
BOCA CHICA NAS CLEAR     60  52  74 NE15      30.18R
KEY WEST INTL  CLEAR     60  52  74 NE14G21   30.18R

...INTERNATIONAL WEATHER...

CITY           SKY/WX    TMP DP  RH WIND       PRES   REMARKS
NASSAU BAHAMAS NOT AVBL
CANCUN MEXICO  PTCLDY    70  59  68 NE5       30.10S
COZUMEL MEXICO PTCLDY    66  57  72 NE5       30.09F

ADJACENT COASTAL WATERS...

STATION/POSITION TIME  SKY/WX   TEMP    WIND        PRES    WAVE
                                AIR SEA DIR/SP/G            HT/PER
                 (UTC)          (F)     (DEG/KT/KT) (MB)    (FT/S)
PULASKI SHOAL LI NOT AVBL
SAND KEY         NOT AVBL
SOMBRERO KEY     NOT AVBL
LONG KEY         NOT AVBL
MOLASSES REEF    NOT AVBL
FOWEY ROCKS      NOT AVBL
Buoy 42080       NOT AVBL

$$


USA.gov is the U.S. government's official web portal to all federal, state and local government web resources and services.